Data supplied by UK-AIR on 5/5/2022
All Data GMT hour ending 
Status: R =Ratified P=Provisional,P*=As supplied
,,Telford Hollinswood,,,,,,,,,,,,,,,,,,,,,,,
Date,time,"Nitric oxide",status,unit,"Nitrogen dioxide",status,unit,"Nitrogen oxides as nitrogen dioxide",status,unit
 
01-01-2021,01:00,1.27282,R,ugm-3,33.23399,R,ugm-3,35.18562,R,ugm-3
01-01-2021,02:00,1.08425,R,ugm-3,21.42807,R,ugm-3,23.09057,R,ugm-3
01-01-2021,03:00,0.84855,R,ugm-3,18.54581,R,ugm-3,19.84689,R,ugm-3
01-01-2021,04:00,0.77783,R,ugm-3,12.88159,R,ugm-3,14.07425,R,ugm-3
01-01-2021,05:00,0.63641,R,ugm-3,14.03305,R,ugm-3,15.00887,R,ugm-3
01-01-2021,06:00,1.06068,R,ugm-3,15.19677,R,ugm-3,16.82313,R,ugm-3
01-01-2021,07:00,1.48496,R,ugm-3,15.09600,R,ugm-3,17.37290,R,ugm-3
01-01-2021,08:00,1.76781,R,ugm-3,14.55235,R,ugm-3,17.26295,R,ugm-3
01-01-2021,09:00,1.62638,R,ugm-3,14.32938,R,ugm-3,16.82313,R,ugm-3
01-01-2021,10:00,2.19208,R,ugm-3,12.30746,R,ugm-3,15.66860,R,ugm-3
01-01-2021,11:00,2.82849,R,ugm-3,11.55156,R,ugm-3,15.88851,R,ugm-3
01-01-2021,12:00,3.53561,R,ugm-3,15.14041,R,ugm-3,20.56160,R,ugm-3
01-01-2021,13:00,2.29815,R,ugm-3,12.03487,R,ugm-3,15.55864,R,ugm-3
01-01-2021,14:00,2.36886,R,ugm-3,13.74070,R,ugm-3,17.37290,R,ugm-3
01-01-2021,15:00,2.11417,R,ugm-3,16.11281,R,ugm-3,19.35450,R,ugm-3
01-01-2021,16:00,1.76181,R,ugm-3,15.27848,R,ugm-3,17.97989,R,ugm-3
01-01-2021,17:00,1.47992,R,ugm-3,15.32582,R,ugm-3,17.59500,R,ugm-3
01-01-2021,18:00,1.26850,R,ugm-3,15.32008,R,ugm-3,17.26509,R,ugm-3
01-01-2021,19:00,1.12756,R,ugm-3,12.89694,R,ugm-3,14.62584,R,ugm-3
01-01-2021,20:00,1.02185,R,ugm-3,16.68800,R,ugm-3,18.25481,R,ugm-3
01-01-2021,21:00,1.09232,R,ugm-3,12.34614,R,ugm-3,14.02102,R,ugm-3
01-01-2021,22:00,1.37421,R,ugm-3,18.01718,R,ugm-3,20.12428,R,ugm-3
01-01-2021,23:00,1.44469,R,ugm-3,18.84386,R,ugm-3,21.05902,R,ugm-3
01-01-2021,24:00,0.66949,R,ugm-3,12.05975,R,ugm-3,13.08628,R,ugm-3
02-01-2021,01:00,0.89655,R,ugm-3,12.86120,R,ugm-3,14.23588,R,ugm-3
02-01-2021,02:00,0.80217,R,ugm-3,9.99729,R,ugm-3,11.22727,R,ugm-3
02-01-2021,03:00,0.77858,R,ugm-3,10.30864,R,ugm-3,11.50245,R,ugm-3
02-01-2021,04:00,0.67241,R,ugm-3,9.48079,R,ugm-3,10.51181,R,ugm-3
02-01-2021,05:00,0.70780,R,ugm-3,10.85745,R,ugm-3,11.94273,R,ugm-3
02-01-2021,06:00,0.84936,R,ugm-3,9.97997,R,ugm-3,11.28230,R,ugm-3
02-01-2021,07:00,2.01723,R,ugm-3,21.34278,R,ugm-3,24.43582,R,ugm-3
02-01-2021,08:00,1.34482,R,ugm-3,14.94398,R,ugm-3,17.00601,R,ugm-3
02-01-2021,09:00,1.84028,R,ugm-3,17.76160,R,ugm-3,20.58333,R,ugm-3
02-01-2021,10:00,1.27404,R,ugm-3,12.24569,R,ugm-3,14.19919,R,ugm-3
02-01-2021,11:00,2.44191,R,ugm-3,19.04054,R,ugm-3,22.78475,R,ugm-3
02-01-2021,12:00,3.14971,R,ugm-3,18.39555,R,ugm-3,23.22504,R,ugm-3
02-01-2021,13:00,4.10524,R,ugm-3,17.97610,R,ugm-3,24.27071,R,ugm-3
02-01-2021,14:00,3.43283,R,ugm-3,22.03408,R,ugm-3,27.29767,R,ugm-3
02-01-2021,15:00,4.56531,R,ugm-3,28.55298,R,ugm-3,35.55302,R,ugm-3
02-01-2021,16:00,4.49453,R,ugm-3,28.11115,R,ugm-3,35.00266,R,ugm-3
02-01-2021,17:00,3.75134,R,ugm-3,33.65354,R,ugm-3,39.40551,R,ugm-3
02-01-2021,18:00,3.89290,R,ugm-3,36.73862,R,ugm-3,42.70765,R,ugm-3
02-01-2021,19:00,2.86659,R,ugm-3,30.71736,R,ugm-3,35.11273,R,ugm-3
02-01-2021,20:00,1.98184,R,ugm-3,22.11251,R,ugm-3,25.15128,R,ugm-3
02-01-2021,21:00,1.76950,R,ugm-3,18.25538,R,ugm-3,20.96857,R,ugm-3
02-01-2021,22:00,1.34482,R,ugm-3,15.38427,R,ugm-3,17.44629,R,ugm-3
02-01-2021,23:00,0.67241,R,ugm-3,12.23257,R,ugm-3,13.26359,R,ugm-3
02-01-2021,24:00,0.92014,R,ugm-3,11.57755,R,ugm-3,12.98841,R,ugm-3
03-01-2021,01:00,0.61401,R,ugm-3,9.26923,R,ugm-3,10.21070,R,ugm-3
03-01-2021,02:00,0.37786,R,ugm-3,7.06029,R,ugm-3,7.63966,R,ugm-3
03-01-2021,03:00,0.74390,R,ugm-3,6.57249,R,ugm-3,7.71312,R,ugm-3
03-01-2021,04:00,0.53136,R,ugm-3,7.33913,R,ugm-3,8.15387,R,ugm-3
03-01-2021,05:00,0.63763,R,ugm-3,5.79884,R,ugm-3,6.77653,R,ugm-3
03-01-2021,06:00,0.63763,R,ugm-3,6.34978,R,ugm-3,7.32747,R,ugm-3
03-01-2021,07:00,1.36972,R,ugm-3,7.44937,R,ugm-3,9.54958,R,ugm-3
03-01-2021,08:00,1.06272,R,ugm-3,7.51608,R,ugm-3,9.14556,R,ugm-3
03-01-2021,09:00,1.27526,R,ugm-3,9.55922,R,ugm-3,11.51459,R,ugm-3
03-01-2021,10:00,2.83391,R,ugm-3,12.95416,R,ugm-3,17.29943,R,ugm-3
03-01-2021,11:00,4.07374,R,ugm-3,16.17682,R,ugm-3,22.42315,R,ugm-3
03-01-2021,12:00,7.29732,R,ugm-3,24.45658,R,ugm-3,35.64564,R,ugm-3
03-01-2021,13:00,7.97037,R,ugm-3,24.03061,R,ugm-3,36.25167,R,ugm-3
03-01-2021,14:00,7.97037,R,ugm-3,21.71667,R,ugm-3,33.93773,R,ugm-3
03-01-2021,15:00,6.34087,R,ugm-3,21.07486,R,ugm-3,30.79739,R,ugm-3
03-01-2021,16:00,4.03832,R,ugm-3,23.33823,R,ugm-3,29.53023,R,ugm-3
03-01-2021,17:00,3.36527,R,ugm-3,25.80267,R,ugm-3,30.96267,R,ugm-3
03-01-2021,18:00,2.72764,R,ugm-3,19.17742,R,ugm-3,23.35974,R,ugm-3
03-01-2021,19:00,1.23984,R,ugm-3,10.82560,R,ugm-3,12.72665,R,ugm-3
03-01-2021,20:00,1.41695,R,ugm-3,9.50724,R,ugm-3,11.67987,R,ugm-3
03-01-2021,21:00,1.41695,R,ugm-3,12.09664,R,ugm-3,14.26927,R,ugm-3
03-01-2021,22:00,1.20441,R,ugm-3,18.20738,R,ugm-3,20.05411,R,ugm-3
03-01-2021,23:00,4.21544,R,ugm-3,26.20699,R,ugm-3,32.67058,R,ugm-3
03-01-2021,24:00,1.80662,R,ugm-3,19.10210,R,ugm-3,21.87221,R,ugm-3
04-01-2021,01:00,3.78216,R,ugm-3,20.52657,R,ugm-3,26.32580,R,ugm-3
04-01-2021,02:00,0.99282,R,ugm-3,12.96425,R,ugm-3,14.48654,R,ugm-3
04-01-2021,03:00,0.95736,R,ugm-3,12.65093,R,ugm-3,14.11887,R,ugm-3
04-01-2021,04:00,0.95736,R,ugm-3,11.65820,R,ugm-3,13.12613,R,ugm-3
04-01-2021,05:00,0.92190,R,ugm-3,11.49196,R,ugm-3,12.90553,R,ugm-3
04-01-2021,06:00,2.12747,R,ugm-3,17.41986,R,ugm-3,20.68193,R,ugm-3
04-01-2021,07:00,6.80789,R,ugm-3,31.09070,R,ugm-3,41.52932,R,ugm-3
04-01-2021,08:00,13.42667,R,ugm-3,38.60901,R,ugm-3,59.19628,R,ugm-3
04-01-2021,09:00,17.19701,R,ugm-3,41.19259,R,ugm-3,67.56097,R,ugm-3
04-01-2021,10:00,14.21856,R,ugm-3,35.77701,R,ugm-3,57.57849,R,ugm-3
04-01-2021,11:00,20.21092,R,ugm-3,37.28830,R,ugm-3,68.27794,R,ugm-3
04-01-2021,12:00,12.94208,R,ugm-3,29.68208,R,ugm-3,49.52633,R,ugm-3
04-01-2021,13:00,6.55968,R,ugm-3,20.55121,R,ugm-3,30.60926,R,ugm-3
04-01-2021,14:00,3.86490,R,ugm-3,17.56858,R,ugm-3,23.49467,R,ugm-3
04-01-2021,15:00,2.97845,R,ugm-3,16.83201,R,ugm-3,21.39890,R,ugm-3
04-01-2021,16:00,3.33303,R,ugm-3,21.96897,R,ugm-3,27.07954,R,ugm-3
04-01-2021,17:00,3.36849,R,ugm-3,24.06552,R,ugm-3,29.23046,R,ugm-3
04-01-2021,18:00,3.79398,R,ugm-3,28.32162,R,ugm-3,34.13897,R,ugm-3
04-01-2021,19:00,3.01391,R,ugm-3,20.47281,R,ugm-3,25.09408,R,ugm-3
04-01-2021,20:00,1.91472,R,ugm-3,16.25697,R,ugm-3,19.19283,R,ugm-3
04-01-2021,21:00,1.87926,R,ugm-3,12.72647,R,ugm-3,15.60796,R,ugm-3
04-01-2021,22:00,1.73743,R,ugm-3,17.63185,R,ugm-3,20.29587,R,ugm-3
04-01-2021,23:00,1.70197,R,ugm-3,20.33350,R,ugm-3,22.94316,R,ugm-3
04-01-2021,24:00,1.66651,R,ugm-3,17.51998,R,ugm-3,20.07526,R,ugm-3
05-01-2021,01:00,1.37234,R,ugm-3,12.91286,R,ugm-3,15.01710,R,ugm-3
05-01-2021,02:00,0.89912,R,ugm-3,8.04386,R,ugm-3,9.42249,R,ugm-3
05-01-2021,03:00,1.02926,R,ugm-3,5.98558,R,ugm-3,7.56376,R,ugm-3
05-01-2021,04:00,1.06475,R,ugm-3,5.59991,R,ugm-3,7.23250,R,ugm-3
05-01-2021,05:00,0.95827,R,ugm-3,4.76939,R,ugm-3,6.23872,R,ugm-3
05-01-2021,06:00,1.10024,R,ugm-3,7.14657,R,ugm-3,8.83359,R,ugm-3
05-01-2021,07:00,1.88106,R,ugm-3,12.68495,R,ugm-3,15.56919,R,ugm-3
05-01-2021,08:00,3.93957,R,ugm-3,24.32486,R,ugm-3,30.36545,R,ugm-3
05-01-2021,09:00,5.28825,R,ugm-3,27.99873,R,ugm-3,36.10728,R,ugm-3
05-01-2021,10:00,7.16931,R,ugm-3,29.86254,R,ugm-3,40.85533,R,ugm-3
05-01-2021,11:00,8.58898,R,ugm-3,29.28684,R,ugm-3,42.45642,R,ugm-3
05-01-2021,12:00,7.09833,R,ugm-3,20.25444,R,ugm-3,31.13839,R,ugm-3
05-01-2021,13:00,6.17555,R,ugm-3,19.79221,R,ugm-3,29.26125,R,ugm-3
05-01-2021,14:00,5.28825,R,ugm-3,23.02984,R,ugm-3,31.13839,R,ugm-3
05-01-2021,15:00,5.43022,R,ugm-3,26.23518,R,ugm-3,34.56140,R,ugm-3
05-01-2021,16:00,4.47195,R,ugm-3,24.72318,R,ugm-3,31.58007,R,ugm-3
05-01-2021,17:00,7.16931,R,ugm-3,33.56160,R,ugm-3,44.55439,R,ugm-3
05-01-2021,18:00,10.04413,R,ugm-3,37.71114,R,ugm-3,53.11193,R,ugm-3
05-01-2021,19:00,10.68298,R,ugm-3,40.09939,R,ugm-3,56.47973,R,ugm-3
05-01-2021,20:00,7.16931,R,ugm-3,33.61681,R,ugm-3,44.60960,R,ugm-3
05-01-2021,21:00,5.53670,R,ugm-3,31.37207,R,ugm-3,39.86155,R,ugm-3
05-01-2021,22:00,10.18610,R,ugm-3,34.45691,R,ugm-3,50.07539,R,ugm-3
05-01-2021,23:00,5.64317,R,ugm-3,32.14738,R,ugm-3,40.80012,R,ugm-3
05-01-2021,24:00,2.12950,R,ugm-3,25.05750,R,ugm-3,28.32268,R,ugm-3
06-01-2021,01:00,1.37318,R,ugm-3,18.14071,R,ugm-3,20.24623,R,ugm-3
06-01-2021,02:00,0.85232,R,ugm-3,12.90230,R,ugm-3,14.20917,R,ugm-3
06-01-2021,03:00,1.10091,R,ugm-3,11.23273,R,ugm-3,12.92077,R,ugm-3
06-01-2021,04:00,0.81681,R,ugm-3,11.28184,R,ugm-3,12.53426,R,ugm-3
06-01-2021,05:00,1.24297,R,ugm-3,10.73884,R,ugm-3,12.64469,R,ugm-3
06-01-2021,06:00,2.45042,R,ugm-3,15.07174,R,ugm-3,18.82899,R,ugm-3
06-01-2021,07:00,6.92509,R,ugm-3,24.61011,R,ugm-3,35.22843,R,ugm-3
06-01-2021,08:00,16.72676,R,ugm-3,31.06050,R,ugm-3,56.70784,R,ugm-3
06-01-2021,09:00,9.09140,R,ugm-3,27.36235,R,ugm-3,41.30230,R,ugm-3
06-01-2021,10:00,9.97923,R,ugm-3,25.00712,R,ugm-3,40.30840,R,ugm-3
06-01-2021,11:00,12.18106,R,ugm-3,24.83362,R,ugm-3,43.51098,R,ugm-3
06-01-2021,12:00,13.77916,R,ugm-3,26.41408,R,ugm-3,47.54182,R,ugm-3
06-01-2021,13:00,16.37163,R,ugm-3,27.85027,R,ugm-3,52.95308,R,ugm-3
06-01-2021,14:00,16.08752,R,ugm-3,27.34721,R,ugm-3,52.01439,R,ugm-3
06-01-2021,15:00,16.40714,R,ugm-3,28.73451,R,ugm-3,53.89177,R,ugm-3
06-01-2021,16:00,14.77353,R,ugm-3,34.22106,R,ugm-3,56.87349,R,ugm-3
06-01-2021,17:00,29.51154,R,ugm-3,43.04155,R,ugm-3,88.29195,R,ugm-3
06-01-2021,18:00,20.77527,R,ugm-3,44.34446,R,ugm-3,76.19943,R,ugm-3
06-01-2021,19:00,34.55443,R,ugm-3,46.13176,R,ugm-3,99.11448,R,ugm-3
06-01-2021,20:00,33.20492,R,ugm-3,45.55056,R,ugm-3,96.46406,R,ugm-3
06-01-2021,21:00,49.36347,R,ugm-3,47.27862,R,ugm-3,122.96821,R,ugm-3
06-01-2021,22:00,24.57520,R,ugm-3,44.20534,R,ugm-3,81.88678,R,ugm-3
06-01-2021,23:00,10.01475,R,ugm-3,39.41951,R,ugm-3,54.77524,R,ugm-3
06-01-2021,24:00,2.41490,R,ugm-3,29.92434,R,ugm-3,33.62714,R,ugm-3
07-01-2021,01:00,2.51114,R,ugm-3,25.08705,R,ugm-3,28.93740,R,ugm-3
07-01-2021,02:00,5.49607,R,ugm-3,24.92814,R,ugm-3,33.35533,R,ugm-3
07-01-2021,03:00,2.30977,R,ugm-3,17.16742,R,ugm-3,20.70902,R,ugm-3
07-01-2021,04:00,2.91387,R,ugm-3,18.72624,R,ugm-3,23.19410,R,ugm-3
07-01-2021,05:00,8.10197,R,ugm-3,21.70563,R,ugm-3,34.12847,R,ugm-3
07-01-2021,06:00,30.84432,R,ugm-3,24.00028,R,ugm-3,71.29425,R,ugm-3
07-01-2021,07:00,61.65311,R,ugm-3,25.91021,R,ugm-3,120.44366,R,ugm-3
07-01-2021,08:00,91.57353,R,ugm-3,33.43454,R,ugm-3,173.84532,R,ugm-3
07-01-2021,09:00,113.53412,R,ugm-3,34.55326,R,ugm-3,208.63647,R,ugm-3
07-01-2021,10:00,116.37691,R,ugm-3,42.67500,R,ugm-3,221.11711,R,ugm-3
07-01-2021,11:00,89.33483,R,ugm-3,37.75075,R,ugm-3,174.72891,R,ugm-3
07-01-2021,12:00,72.98876,R,ugm-3,34.65011,R,ugm-3,146.56464,R,ugm-3
07-01-2021,13:00,53.65775,R,ugm-3,29.77554,R,ugm-3,112.04960,R,ugm-3
07-01-2021,14:00,64.14056,R,ugm-3,30.93203,R,ugm-3,129.27951,R,ugm-3
07-01-2021,15:00,79.52718,R,ugm-3,40.58441,R,ugm-3,162.52439,R,ugm-3
07-01-2021,16:00,80.77091,R,ugm-3,41.05203,R,ugm-3,164.89902,R,ugm-3
07-01-2021,17:00,50.42407,R,ugm-3,33.35317,R,ugm-3,110.66900,R,ugm-3
07-01-2021,18:00,72.06485,R,ugm-3,35.84585,R,ugm-3,146.34374,R,ugm-3
07-01-2021,19:00,58.73925,R,ugm-3,35.23779,R,ugm-3,125.30338,R,ugm-3
07-01-2021,20:00,30.27576,R,ugm-3,31.27805,R,ugm-3,77.70024,R,ugm-3
07-01-2021,21:00,28.81883,R,ugm-3,28.92839,R,ugm-3,73.11665,R,ugm-3
07-01-2021,22:00,23.59520,R,ugm-3,26.99752,R,ugm-3,63.17632,R,ugm-3
07-01-2021,23:00,24.34143,R,ugm-3,30.60258,R,ugm-3,67.92559,R,ugm-3
07-01-2021,24:00,10.09192,R,ugm-3,24.83950,R,ugm-3,40.31356,R,ugm-3
08-01-2021,01:00,9.00767,R,ugm-3,28.90051,R,ugm-3,42.71207,R,ugm-3
08-01-2021,02:00,4.78829,R,ugm-3,26.53316,R,ugm-3,33.87509,R,ugm-3
08-01-2021,03:00,2.70230,R,ugm-3,20.26869,R,ugm-3,24.41216,R,ugm-3
08-01-2021,04:00,1.63560,R,ugm-3,18.47994,R,ugm-3,20.98783,R,ugm-3
08-01-2021,05:00,1.52893,R,ugm-3,29.08218,R,ugm-3,31.42651,R,ugm-3
08-01-2021,06:00,2.27562,R,ugm-3,27.16404,R,ugm-3,30.65328,R,ugm-3
08-01-2021,07:00,3.05787,R,ugm-3,28.72617,R,ugm-3,33.41483,R,ugm-3
08-01-2021,08:00,3.87567,R,ugm-3,28.57685,R,ugm-3,34.51946,R,ugm-3
08-01-2021,09:00,4.65791,R,ugm-3,28.59251,R,ugm-3,35.73454,R,ugm-3
08-01-2021,10:00,4.90681,R,ugm-3,25.83593,R,ugm-3,33.35960,R,ugm-3
08-01-2021,11:00,4.48013,R,ugm-3,25.66170,R,ugm-3,32.53113,R,ugm-3
08-01-2021,12:00,4.65791,R,ugm-3,28.81343,R,ugm-3,35.95547,R,ugm-3
08-01-2021,13:00,6.11573,R,ugm-3,31.88033,R,ugm-3,41.25765,R,ugm-3
08-01-2021,14:00,7.14687,R,ugm-3,31.84574,R,ugm-3,42.80412,R,ugm-3
08-01-2021,15:00,7.43133,R,ugm-3,41.68257,R,ugm-3,53.07711,R,ugm-3
08-01-2021,16:00,12.76481,R,ugm-3,53.05649,R,ugm-3,72.62893,R,ugm-3
08-01-2021,17:00,9.67139,R,ugm-3,48.63131,R,ugm-3,63.46057,R,ugm-3
08-01-2021,18:00,6.47130,R,ugm-3,44.81153,R,ugm-3,54.73405,R,ugm-3
08-01-2021,19:00,6.22240,R,ugm-3,45.80071,R,ugm-3,55.34159,R,ugm-3
08-01-2021,20:00,5.26237,R,ugm-3,41.41823,R,ugm-3,49.48709,R,ugm-3
08-01-2021,21:00,4.01789,R,ugm-3,38.79745,R,ugm-3,44.95814,R,ugm-3
08-01-2021,22:00,2.02673,R,ugm-3,23.18242,R,ugm-3,26.29002,R,ugm-3
08-01-2021,23:00,1.28004,R,ugm-3,21.40007,R,ugm-3,23.36277,R,ugm-3
08-01-2021,24:00,1.17337,R,ugm-3,18.85730,R,ugm-3,20.65644,R,ugm-3
09-01-2021,01:00,0.80644,R,ugm-3,15.62954,R,ugm-3,16.86606,R,ugm-3
09-01-2021,02:00,0.75900,R,ugm-3,9.29465,R,ugm-3,10.45843,R,ugm-3
09-01-2021,03:00,0.60483,R,ugm-3,9.40215,R,ugm-3,10.32954,R,ugm-3
09-01-2021,04:00,1.03177,R,ugm-3,13.00086,R,ugm-3,14.58289,R,ugm-3
09-01-2021,05:00,0.78272,R,ugm-3,11.78082,R,ugm-3,12.98098,R,ugm-3
09-01-2021,06:00,2.06354,R,ugm-3,17.66076,R,ugm-3,20.82480,R,ugm-3
09-01-2021,07:00,4.26939,R,ugm-3,27.64614,R,ugm-3,34.19245,R,ugm-3
09-01-2021,08:00,3.94918,R,ugm-3,25.04378,R,ugm-3,31.09911,R,ugm-3
09-01-2021,09:00,27.21735,R,ugm-3,31.56841,R,ugm-3,73.30109,R,ugm-3
09-01-2021,10:00,69.23523,R,ugm-3,37.40487,R,ugm-3,143.56409,R,ugm-3
09-01-2021,11:00,28.14238,R,ugm-3,38.71197,R,ugm-3,81.86301,R,ugm-3
09-01-2021,12:00,4.16265,R,ugm-3,14.27644,R,ugm-3,20.65909,R,ugm-3
09-01-2021,13:00,2.63279,R,ugm-3,9.82790,R,ugm-3,13.86479,R,ugm-3
09-01-2021,14:00,3.05973,R,ugm-3,7.79232,R,ugm-3,12.48383,R,ugm-3
09-01-2021,15:00,2.63279,R,ugm-3,8.17076,R,ugm-3,12.20764,R,ugm-3
09-01-2021,16:00,4.12708,R,ugm-3,15.10433,R,ugm-3,21.43242,R,ugm-3
09-01-2021,17:00,36.71673,R,ugm-3,41.36293,R,ugm-3,97.66114,R,ugm-3
09-01-2021,18:00,59.98490,R,ugm-3,41.14851,R,ugm-3,133.12407,R,ugm-3
09-01-2021,19:00,35.32918,R,ugm-3,39.56857,R,ugm-3,93.73923,R,ugm-3
09-01-2021,20:00,28.96068,R,ugm-3,35.63440,R,ugm-3,80.04015,R,ugm-3
09-01-2021,21:00,30.49054,R,ugm-3,26.43910,R,ugm-3,73.19062,R,ugm-3
09-01-2021,22:00,1.99238,R,ugm-3,10.86509,R,ugm-3,13.92003,R,ugm-3
09-01-2021,23:00,2.84626,R,ugm-3,9.66630,R,ugm-3,14.03050,R,ugm-3
09-01-2021,24:00,3.20204,R,ugm-3,15.25222,R,ugm-3,20.16194,R,ugm-3
10-01-2021,01:00,1.66133,R,ugm-3,10.85885,R,ugm-3,13.40619,R,ugm-3
10-01-2021,02:00,0.90186,R,ugm-3,5.54124,R,ugm-3,6.92407,R,ugm-3
10-01-2021,03:00,0.71200,R,ugm-3,4.15659,R,ugm-3,5.24830,R,ugm-3
10-01-2021,04:00,0.74760,R,ugm-3,3.49430,R,ugm-3,4.64060,R,ugm-3
10-01-2021,05:00,0.60520,R,ugm-3,2.44200,R,ugm-3,3.36996,R,ugm-3
10-01-2021,06:00,0.99680,R,ugm-3,3.77515,R,ugm-3,5.30355,R,ugm-3
10-01-2021,07:00,0.99680,R,ugm-3,8.30526,R,ugm-3,9.83366,R,ugm-3
10-01-2021,08:00,0.81880,R,ugm-3,6.25789,R,ugm-3,7.51336,R,ugm-3
10-01-2021,09:00,0.99680,R,ugm-3,6.48216,R,ugm-3,8.01057,R,ugm-3
10-01-2021,10:00,1.03240,R,ugm-3,7.47724,R,ugm-3,9.06023,R,ugm-3
10-01-2021,11:00,4.44999,R,ugm-3,14.05950,R,ugm-3,20.88271,R,ugm-3
10-01-2021,12:00,7.08438,R,ugm-3,15.32370,R,ugm-3,26.18626,R,ugm-3
10-01-2021,13:00,1.67319,R,ugm-3,7.87583,R,ugm-3,10.44136,R,ugm-3
10-01-2021,14:00,1.77999,R,ugm-3,8.31977,R,ugm-3,11.04906,R,ugm-3
10-01-2021,15:00,1.60200,R,ugm-3,6.10666,R,ugm-3,8.56302,R,ugm-3
10-01-2021,16:00,1.63759,R,ugm-3,7.37796,R,ugm-3,9.88890,R,ugm-3
10-01-2021,17:00,2.91919,R,ugm-3,11.15838,R,ugm-3,15.63441,R,ugm-3
10-01-2021,18:00,2.77679,R,ugm-3,15.57537,R,ugm-3,19.83305,R,ugm-3
10-01-2021,19:00,5.94518,R,ugm-3,14.08720,R,ugm-3,23.20302,R,ugm-3
10-01-2021,20:00,5.55358,R,ugm-3,12.91979,R,ugm-3,21.43517,R,ugm-3
10-01-2021,21:00,2.91919,R,ugm-3,8.50661,R,ugm-3,12.98264,R,ugm-3
10-01-2021,22:00,1.17480,R,ugm-3,4.93860,R,ugm-3,6.73992,R,ugm-3
10-01-2021,23:00,0.71200,R,ugm-3,4.93002,R,ugm-3,6.02174,R,ugm-3
10-01-2021,24:00,0.81880,R,ugm-3,5.04249,R,ugm-3,6.29796,R,ugm-3
11-01-2021,01:00,4.13210,R,ugm-3,2.06256,R,ugm-3,8.39836,R,ugm-3
11-01-2021,02:00,0.52245,R,ugm-3,3.17709,R,ugm-3,3.97817,R,ugm-3
11-01-2021,03:00,0.53432,R,ugm-3,1.72233,R,ugm-3,2.54161,R,ugm-3
11-01-2021,04:00,0.64119,R,ugm-3,1.72422,R,ugm-3,2.70737,R,ugm-3
11-01-2021,05:00,0.67681,R,ugm-3,3.27192,R,ugm-3,4.30968,R,ugm-3
11-01-2021,06:00,0.81930,R,ugm-3,5.65031,R,ugm-3,6.90654,R,ugm-3
11-01-2021,07:00,0.92616,R,ugm-3,6.09423,R,ugm-3,7.51432,R,ugm-3
11-01-2021,08:00,1.24675,R,ugm-3,7.42599,R,ugm-3,9.33765,R,ugm-3
11-01-2021,09:00,2.63599,R,ugm-3,9.77129,R,ugm-3,13.81309,R,ugm-3
11-01-2021,10:00,2.74286,R,ugm-3,9.60743,R,ugm-3,13.81309,R,ugm-3
11-01-2021,11:00,1.92356,R,ugm-3,5.39368,R,ugm-3,8.34311,R,ugm-3
11-01-2021,12:00,1.78108,R,ugm-3,3.78883,R,ugm-3,6.51978,R,ugm-3
11-01-2021,13:00,2.10167,R,ugm-3,3.62878,R,ugm-3,6.85129,R,ugm-3
11-01-2021,14:00,2.60037,R,ugm-3,4.85320,R,ugm-3,8.84038,R,ugm-3
11-01-2021,15:00,2.42226,R,ugm-3,6.50760,R,ugm-3,10.22169,R,ugm-3
11-01-2021,16:00,2.35102,R,ugm-3,4.95927,R,ugm-3,8.56411,R,ugm-3
11-01-2021,17:00,4.63080,R,ugm-3,8.09394,R,ugm-3,15.19440,R,ugm-3
11-01-2021,18:00,2.45789,R,ugm-3,7.00550,R,ugm-3,10.77421,R,ugm-3
11-01-2021,19:00,2.24416,R,ugm-3,5.28888,R,ugm-3,8.72987,R,ugm-3
11-01-2021,20:00,1.53173,R,ugm-3,3.78440,R,ugm-3,6.13301,R,ugm-3
11-01-2021,21:00,1.24675,R,ugm-3,4.27660,R,ugm-3,6.18826,R,ugm-3
11-01-2021,22:00,0.74805,R,ugm-3,5.15177,R,ugm-3,6.29877,R,ugm-3
11-01-2021,23:00,0.92616,R,ugm-3,4.04989,R,ugm-3,5.46998,R,ugm-3
11-01-2021,24:00,0.64119,R,ugm-3,4.54209,R,ugm-3,5.52524,R,ugm-3
12-01-2021,01:00,0.76039,R,ugm-3,4.28635,R,ugm-3,5.45226,R,ugm-3
12-01-2021,02:00,0.71286,R,ugm-3,1.41205,R,ugm-3,2.50509,R,ugm-3
12-01-2021,03:00,0.74851,R,ugm-3,1.28372,R,ugm-3,2.43142,R,ugm-3
12-01-2021,04:00,0.64158,R,ugm-3,2.22131,R,ugm-3,3.20505,R,ugm-3
12-01-2021,05:00,0.49901,R,ugm-3,1.88732,R,ugm-3,2.65245,R,ugm-3
12-01-2021,06:00,1.17623,R,ugm-3,5.15917,R,ugm-3,6.96269,R,ugm-3
12-01-2021,07:00,1.42573,R,ugm-3,9.19736,R,ugm-3,11.38344,R,ugm-3
12-01-2021,08:00,1.21187,R,ugm-3,13.11713,R,ugm-3,14.97530,R,ugm-3
12-01-2021,09:00,1.35444,R,ugm-3,11.90386,R,ugm-3,13.98063,R,ugm-3
12-01-2021,10:00,1.85345,R,ugm-3,17.49356,R,ugm-3,20.33547,R,ugm-3
12-01-2021,11:00,2.49502,R,ugm-3,17.72553,R,ugm-3,21.55118,R,ugm-3
12-01-2021,12:00,4.06332,R,ugm-3,21.34411,R,ugm-3,27.57445,R,ugm-3
12-01-2021,13:00,4.27718,R,ugm-3,19.85575,R,ugm-3,26.41400,R,ugm-3
12-01-2021,14:00,3.81382,R,ugm-3,20.45571,R,ugm-3,26.30349,R,ugm-3
12-01-2021,15:00,3.59996,R,ugm-3,25.81223,R,ugm-3,31.33209,R,ugm-3
12-01-2021,16:00,3.31482,R,ugm-3,33.87525,R,ugm-3,38.95789,R,ugm-3
12-01-2021,17:00,11.79789,R,ugm-3,66.78863,R,ugm-3,84.87847,R,ugm-3
12-01-2021,18:00,36.07089,R,ugm-3,74.38594,R,ugm-3,129.69387,R,ugm-3
12-01-2021,19:00,55.71028,R,ugm-3,64.55284,R,ugm-3,149.97407,R,ugm-3
12-01-2021,20:00,82.83473,R,ugm-3,55.39987,R,ugm-3,182.41135,R,ugm-3
12-01-2021,21:00,45.37376,R,ugm-3,43.04658,R,ugm-3,112.61870,R,ugm-3
12-01-2021,22:00,28.58582,R,ugm-3,40.05282,R,ugm-3,83.88381,R,ugm-3
12-01-2021,23:00,30.15412,R,ugm-3,32.28796,R,ugm-3,78.52364,R,ugm-3
12-01-2021,24:00,23.59578,R,ugm-3,30.73947,R,ugm-3,66.91916,R,ugm-3
13-01-2021,01:00,6.70499,R,ugm-3,23.10013,R,ugm-3,33.38096,R,ugm-3
13-01-2021,02:00,3.70914,R,ugm-3,21.43016,R,ugm-3,27.11743,R,ugm-3
13-01-2021,03:00,2.10422,R,ugm-3,17.71957,R,ugm-3,20.94600,R,ugm-3
13-01-2021,04:00,1.21260,R,ugm-3,19.86043,R,ugm-3,21.71973,R,ugm-3
13-01-2021,05:00,0.60630,R,ugm-3,16.97669,R,ugm-3,17.90635,R,ugm-3
13-01-2021,06:00,1.42659,R,ugm-3,15.88473,R,ugm-3,18.07214,R,ugm-3
13-01-2021,07:00,2.53220,R,ugm-3,21.20833,R,ugm-3,25.09099,R,ugm-3
13-01-2021,08:00,14.80090,R,ugm-3,35.66702,R,ugm-3,58.36142,R,ugm-3
13-01-2021,09:00,19.61565,R,ugm-3,34.52962,R,ugm-3,64.60654,R,ugm-3
13-01-2021,10:00,12.16170,R,ugm-3,29.10257,R,ugm-3,47.75025,R,ugm-3
13-01-2021,11:00,11.55540,R,ugm-3,27.26889,R,ugm-3,44.98693,R,ugm-3
13-01-2021,12:00,22.86115,R,ugm-3,30.16119,R,ugm-3,65.21447,R,ugm-3
13-01-2021,13:00,27.39058,R,ugm-3,27.41641,R,ugm-3,69.41472,R,ugm-3
13-01-2021,14:00,8.16724,R,ugm-3,15.44192,R,ugm-3,27.96485,R,ugm-3
13-01-2021,15:00,2.85319,R,ugm-3,7.17587,R,ugm-3,11.55070,R,ugm-3
13-01-2021,16:00,2.31821,R,ugm-3,9.76468,R,ugm-3,13.31923,R,ugm-3
13-01-2021,17:00,1.64058,R,ugm-3,7.43245,R,ugm-3,9.94797,R,ugm-3
13-01-2021,18:00,1.28393,R,ugm-3,9.36096,R,ugm-3,11.32963,R,ugm-3
13-01-2021,19:00,2.03289,R,ugm-3,10.69956,R,ugm-3,13.81663,R,ugm-3
13-01-2021,20:00,0.99862,R,ugm-3,6.97985,R,ugm-3,8.51104,R,ugm-3
13-01-2021,21:00,0.74896,R,ugm-3,7.41792,R,ugm-3,8.56631,R,ugm-3
13-01-2021,22:00,0.74896,R,ugm-3,5.48359,R,ugm-3,6.63198,R,ugm-3
13-01-2021,23:00,0.71330,R,ugm-3,5.26194,R,ugm-3,6.35565,R,ugm-3
13-01-2021,24:00,0.64197,R,ugm-3,6.80824,R,ugm-3,7.79258,R,ugm-3
14-01-2021,01:00,0.90406,R,ugm-3,6.05731,R,ugm-3,7.44351,R,ugm-3
14-01-2021,02:00,1.18955,R,ugm-3,20.80137,R,ugm-3,22.62532,R,ugm-3
14-01-2021,03:00,1.53452,R,ugm-3,32.08254,R,ugm-3,34.43544,R,ugm-3
14-01-2021,04:00,1.78432,R,ugm-3,28.65947,R,ugm-3,31.39539,R,ugm-3
14-01-2021,05:00,1.39177,R,ugm-3,23.62346,R,ugm-3,25.75748,R,ugm-3
14-01-2021,06:00,2.39099,R,ugm-3,26.07104,R,ugm-3,29.73718,R,ugm-3
14-01-2021,07:00,2.60511,R,ugm-3,25.02418,R,ugm-3,29.01863,R,ugm-3
14-01-2021,08:00,2.31962,R,ugm-3,24.63282,R,ugm-3,28.18952,R,ugm-3
14-01-2021,09:00,2.49805,R,ugm-3,26.45962,R,ugm-3,30.28992,R,ugm-3
14-01-2021,10:00,2.67649,R,ugm-3,24.58310,R,ugm-3,28.68698,R,ugm-3
14-01-2021,11:00,4.06826,R,ugm-3,29.13718,R,ugm-3,35.37509,R,ugm-3
14-01-2021,12:00,4.10394,R,ugm-3,31.79086,R,ugm-3,38.08349,R,ugm-3
14-01-2021,13:00,3.28316,R,ugm-3,22.71323,R,ugm-3,27.74733,R,ugm-3
14-01-2021,14:00,3.78277,R,ugm-3,24.82140,R,ugm-3,30.62156,R,ugm-3
14-01-2021,15:00,3.17610,R,ugm-3,25.58579,R,ugm-3,30.45574,R,ugm-3
14-01-2021,16:00,3.85414,R,ugm-3,25.92798,R,ugm-3,31.83758,R,ugm-3
14-01-2021,17:00,3.74708,R,ugm-3,31.17730,R,ugm-3,36.92275,R,ugm-3
14-01-2021,18:00,3.42590,R,ugm-3,33.65962,R,ugm-3,38.91259,R,ugm-3
14-01-2021,19:00,2.42668,R,ugm-3,25.79523,R,ugm-3,29.51609,R,ugm-3
14-01-2021,20:00,1.74864,R,ugm-3,22.46827,R,ugm-3,25.14947,R,ugm-3
14-01-2021,21:00,1.39177,R,ugm-3,17.15646,R,ugm-3,19.29048,R,ugm-3
14-01-2021,22:00,1.24903,R,ugm-3,17.09896,R,ugm-3,19.01411,R,ugm-3
14-01-2021,23:00,0.85648,R,ugm-3,16.87176,R,ugm-3,18.18500,R,ugm-3
14-01-2021,24:00,0.96353,R,ugm-3,14.77303,R,ugm-3,16.25043,R,ugm-3
15-01-2021,01:00,2.42815,R,ugm-3,17.35724,R,ugm-3,21.08035,R,ugm-3
15-01-2021,02:00,0.71416,R,ugm-3,11.28783,R,ugm-3,12.38286,R,ugm-3
15-01-2021,03:00,0.60704,R,ugm-3,9.57254,R,ugm-3,10.50332,R,ugm-3
15-01-2021,04:00,0.49991,R,ugm-3,8.18894,R,ugm-3,8.95547,R,ugm-3
15-01-2021,05:00,0.67845,R,ugm-3,9.40776,R,ugm-3,10.44804,R,ugm-3
15-01-2021,06:00,0.74987,R,ugm-3,8.57961,R,ugm-3,9.72939,R,ugm-3
15-01-2021,07:00,1.82111,R,ugm-3,11.96760,R,ugm-3,14.75993,R,ugm-3
15-01-2021,08:00,3.21373,R,ugm-3,13.25968,R,ugm-3,18.18733,R,ugm-3
15-01-2021,09:00,4.67776,R,ugm-3,16.15596,R,ugm-3,23.32843,R,ugm-3
15-01-2021,10:00,6.99879,R,ugm-3,19.28606,R,ugm-3,30.01739,R,ugm-3
15-01-2021,11:00,3.28515,R,ugm-3,11.71288,R,ugm-3,16.75004,R,ugm-3
15-01-2021,12:00,5.64188,R,ugm-3,15.67272,R,ugm-3,24.32348,R,ugm-3
15-01-2021,13:00,6.49888,R,ugm-3,14.35868,R,ugm-3,24.32348,R,ugm-3
15-01-2021,14:00,5.89184,R,ugm-3,16.72675,R,ugm-3,25.76078,R,ugm-3
15-01-2021,15:00,7.46300,R,ugm-3,15.42329,R,ugm-3,26.86639,R,ugm-3
15-01-2021,16:00,9.53407,R,ugm-3,21.03732,R,ugm-3,35.65602,R,ugm-3
15-01-2021,17:00,4.60635,R,ugm-3,24.99981,R,ugm-3,32.06277,R,ugm-3
15-01-2021,18:00,4.03502,R,ugm-3,21.39810,R,ugm-3,27.58504,R,ugm-3